Hourly Data Report for June 30, 2021

ATIKOKAN (AUT)
ONTARIO
Current Station Operator: ECCC - MSC

48°45'40.000" N
91°37'41.000" W
389.30 m
6020LPQ
71747
WCH

Download Data

Hourly Data (June 2021)
Hourly Data Report for June 30, 2021
TIME
LST
Temp Definition
°C
Dew Point Definition
°C
Rel Hum Definition
%
Precip. Amount Definition
mm

Wind Dir Definition
10's deg

Wind Spd Definition
km/h
Visibility Definition
km
Stn Press Definition
kPa
Hmdx Definition


Wind Chill Definition


Weather Definition


00:00 13.1 12.4 96 0.0 5 1   97.19     LegendNANA
01:00 12.4 12.0 97 0.0   0   97.20     LegendNANA
02:00 11.8 11.5 98 0.0 0 1   97.19     LegendNANA
03:00 11.0 10.8 98 0.0 4 1   97.18     LegendNANA
04:00 10.3 10.0 98 0.0   0   97.23     LegendNANA
05:00 10.7 10.5 99 0.0   0   97.22     LegendNANA
06:00 13.1 12.7 97 0.0 0 1   97.25     LegendNANA
07:00 17.7 15.4 86 0.0 0 1   97.30     LegendNANA
08:00 19.9 16.0 78 0.0 10 2   97.29     LegendNANA
09:00 22.5 13.2 56 0.0 33 3   97.30 25   LegendNANA
10:00 25.4 13.1 46 0.0 6 4   97.25 28   LegendNANA
11:00 26.4 13.1 44 0.0 36 3   97.25 29   LegendNANA
12:00 27.2 12.8 41 0.0 4 5   97.24 30   LegendNANA
13:00 27.2 11.9 39 0.0 24 7   97.21 29   LegendNANA
14:00 28.4 12.6 38 0.0 11 6   97.19 31   LegendNANA
15:00 28.1 9.8 32 0.0 7 10   97.18 29   LegendNANA
16:00 27.5 12.0 38 0.0 5 7   97.16 30   LegendNANA
17:00 27.0 12.9 42 0.0 4 6   97.18 30   LegendNANA
18:00 25.9 11.2 40 0.0 5 7   97.18 28   LegendNANA
19:00 24.7 11.8 44 0.0 7 6   97.23 27   LegendNANA
20:00 22.3 11.7 51 0.0 7 7   97.30     LegendNANA
21:00 20.4 12.8 61 0.0 8 7   97.35     LegendNANA
22:00 17.6 12.6 73 0.0 6 4   97.37     LegendNANA
23:00 15.5 12.9 84 0.0 7 3   97.40     LegendNANA

Notes on Data Quality.

Legend

  • E = Estimated
  • M = Missing
  • NA = Not Available*
  • [empty] = Indicates an unobserved value
Date modified: